Temperature
19 20 20 20 20 20 20 19 19 19 19 19 19 19 19 19 19 19 19 19 19 19 19 19 19 19 19 19 19 18 18 18 18 18 18 18 18 18 18 18 18 18 18
20 20 20 20 20 20 19 19 19 19 19 19 19 19 19 19 19 19 19 19 19 19 19 19 19 19 18 19 18 18 18 18 18 18 18 18 18 18 18 18 18 18 18
20 20 20 20 20 20 19 19 19 19 19 19 19 19 19 19 19 19 19 19 19 19 19 19 19 19 18 18 18 18 18 18 18 18 18 18 18 18 18 18 18 18 18
21 20 20 20 20 20 19 19 19 19 19 19 19 19 19 19 19 19 19 19 19 19 19 19 19 18 18 18 18 18 18 18 18 18 18 18 18 18 18 18 18 18 18
21 20 20 20 20 20 19 19 19 19 19 19 19 19 19 19 19 19 19 19 19 19 19 18 18 18 18 18 18 18 18 18 18 18 18 18 18 18 18 18 18 18 18
20 20 20 20 20 20 19 19 19 19 19 19 19 19 19 19 19 19 19 19 18 18 18 18 18 18 18 18 18 18 18 18 18 18 18 18 18 18 18 18 18 18 18
20 20 20 20 20 20 20 19 19 19 19 19 19 19 19 19 19 19 19 18 18 18 18 18 18 18 18 18 18 18 18 18 18 18 18 18 18 18 18 18 18 18 18
20 20 20 20 20 20 19 19 19 19 19 19 19 19 19 19 19 18 18 18 18 18 18 18 18 18 18 18 18 18 18 18 18 18 18 18 18 18 18 18 18 18 18
20 20 20 20 20 19 19 19 19 19 19 19 19 19 19 19 18 18 18 18 18 18 18 18 18 18 18 18 18 18 18 18 18 18 18 18 18 18 18 18 18 18 18
20 20 20 20 19 19 19 19 19 19 19 19 19 19 19 18 18 18 18 18 18 18 18 18 18 18 18 18 18 18 18 18 18 18 18 18 18 18 18 18 18 18 18
20 20 20 20 19 19 19 19 19 19 19 19 19 18 18 18 18 18 18 18 18 18 18 18 18 18 18 18 18 18 18 18 18 18 18 18 18 18 18 18 18 18 18
20 20 20 20 19 19 19 19 19 18 18 18 18 18 18 18 18 18 18 18 18 18 18 18 18 18 18 18 18 18 18 18 18 18 18 18 18 18 18 18 18 18 18
20 20 20 19 19 19 19 19 19 18 18 18 18 18 18 18 18 18 18 18 18 18 18 18 18 18 18 18 18 18 18 18 18 18 18 18 18 18 18 18 18 18 18
20 20 20 19 19 19 19 19 19 18 18 18 18 18 18 18 18 18 18 18 18 18 18 18 18 18 18 18 18 18 18 18 18 18 18 18 18 18 18 18 18 18 18
20 20 20 19 19 19 19 19 18 18 18 18 18 18 18 18 18 18 17 17 17 17 17 18 18 17 18 17 17 17 17 18 18 18 18 18 18 18 18 18 18 18 18
20 20 20 19 19 19 19 19 18 18 18 18 18 18 18 18 18 18 18 17 17 17 17 17 17 17 17 17 17 18 18 18 18 18 18 18 18 18 18 18 18 18 18
20 20 20 19 19 19 19 18 18 18 18 18 18 18 18 18 17 17 18 17 17 17 17 17 17 17 17 17 17 17 18 18 18 18 18 18 18 18 18 18 18 18 18
20 20 20 20 19 19 19 19 18 18 18 18 18 18 18 18 18 17 17 17 17 17 17 17 18 17 17 17 17 17 17 17 17 18 18 18 18 18 18 18 17 17 17
21 20 20 20 19 19 19 19 18 18 18 18 18 17 17 18 17 17 17 17 17 17 17 17 17 17 17 17 17 17 17 17 17 17 18 18 18 18 18 17 17 17 17
21 20 20 20 19 19 19 19 18 18 18 18 17 17 17 17 17 17 17 17 17 17 17 17 17 17 17 17 17 17 17 17 17 17 17 18 18 18 17 17 17 17 17
20 20 20 20 19 19 19 19 18 18 18 17 17 17 17 17 17 17 17 17 17 17 17 17 17 17 17 17 17 17 17 17 17 17 17 17 17 17 17 17 17 17 17
21 20 20 20 19 19 19 19 18 18 18 17 17 17 17 17 17 17 17 17 17 17 17 17 17 17 17 17 17 17 17 17 17 17 17 17 17 17 17 17 17 17 17
21 20 20 20 19 19 19 18 18 18 18 17 17 17 17 17 17 17 17 17 17 17 17 17 17 17 16 16 16 17 17 17 17 17 17 17 17 17 17 17 17 17 17
21 20 20 20 19 19 19 18 18 18 18 17 17 17 17 17 17 17 17 17 17 16 16 16 16 16 16 16 16 16 16 17 17 17 17 17 17 17 17 17 17 17 17
20 20 20 19 19 19 18 18 18 18 17 17 17 17 17 17 17 17 17 17 16 16 16 16 16 16 16 16 16 16 16 16 16 16 16 17 17 17 16 16 16 16 17
20 20 20 19 19 19 18 18 18 18 17 17 17 17 17 17 17 17 17 16 16 16 16 16 16 16 16 16 16 16 16 16 16 16 16 16 16 16 16 16 16 16 16
Wind_Speed
4 6 12 12 13 12 12 13 13 14 15 15 14 14 14 14 14 14 14 13 13 12 12 11 11 11 10 11 11 11 11 11 11 11 10 10 11 11 11 12 12 11 12
8 10 13 13 13 13 13 13 13 13 14 14 14 13 13 13 13 13 12 12 12 11 11 10 10 9 9 9 9 9 9 10 10 10 9 9 9 10 10 10 11 10 12
10 11 13 14 14 13 13 13 13 13 13 13 13 12 12 12 12 12 11 11 10 10 10 9 9 8 7 7 7 7 7 8 8 8 7 7 7 8 9 10 11 11 11
11 11 13 15 14 13 13 13 13 13 12 12 12 11 11 11 11 11 10 10 9 9 9 8 8 7 6 6 6 6 6 6 7 7 5 5 6 8 10 10 11 11 12
10 11 13 15 14 13 13 13 13 12 12 11 11 11 10 10 10 10 9 9 8 8 8 7 7 6 6 5 5 4 4 4 5 4 4 5 6 8 9 11 11 12 12
9 11 14 15 14 13 13 12 12 11 11 10 10 9 9 9 9 9 8 8 8 7 7 7 6 6 6 5 5 4 4 3 3 3 4 6 7 8 9 11 11 11 11
9 9 12 14 14 13 13 12 11 11 10 9 9 9 8 8 8 8 8 8 8 7 7 7 6 6 6 6 5 4 4 4 3 3 4 6 8 9 10 11 11 11 11
11 10 11 13 13 12 12 11 11 10 9 9 8 8 8 7 7 7 7 7 7 7 6 6 7 7 7 7 6 5 4 4 3 4 4 7 9 10 11 11 11 11 12
10 8 8 9 10 11 11 10 10 9 8 8 8 8 8 7 7 7 7 7 8 7 7 6 6 7 8 8 7 7 6 5 4 4 5 7 10 11 11 11 11 12 12
8 7 6 6 7 7 8 9 9 8 7 7 7 7 7 6 6 6 7 7 8 7 7 6 7 8 9 9 8 8 7 5 4 5 5 7 10 12 11 11 12 12 12
7 5 5 4 5 5 6 7 7 7 6 5 5 6 5 4 5 5 6 7 7 7 7 6 6 7 8 9 9 8 6 4 5 5 6 9 11 13 13 12 12 13 13
7 6 5 4 4 4 5 5 4 4 4 4 4 4 3 3 4 4 6 7 7 7 7 7 7 6 6 5 7 7 5 5 5 5 7 10 11 13 13 12 13 13 13
8 7 5 4 4 3 2 4 3 3 3 3 3 3 3 3 2 2 3 4 5 5 4 5 5 4 4 4 4 5 5 5 5 6 7 10 11 12 13 12 12 14 14
7 6 5 4 4 3 3 3 3 2 2 2 3 4 3 1 1 2 2 3 3 3 3 3 3 4 4 5 5 4 5 4 5 5 7 10 12 12 13 13 13 13 14
6 6 5 5 4 3 3 2 3 2 3 3 2 3 4 2 1 1 1 2 2 2 2 2 2 2 2 3 4 4 4 5 6 6 7 11 13 12 12 13 14 13 13
7 6 5 5 4 4 3 2 2 3 3 3 2 2 3 3 2 1 1 1 1 2 2 2 2 2 2 2 2 3 4 5 6 7 7 10 12 12 13 14 14 14 13
7 6 6 6 5 5 4 3 3 3 3 2 2 2 3 3 3 2 1 1 1 1 1 1 1 1 1 1 2 3 3 4 5 6 7 7 9 12 13 14 14 13 13
7 6 6 6 5 4 3 3 3 3 3 2 2 2 2 3 3 2 1 1 1 1 1 1 1 1 1 1 1 2 2 3 4 5 6 7 7 8 11 14 14 13 12
8 7 6 5 5 4 3 3 3 3 2 2 2 2 2 3 3 3 1 1 0 1 0 1 1 1 1 1 1 1 1 2 3 4 5 6 7 7 7 10 13 14 13
7 7 6 5 5 4 3 3 2 2 2 1 1 1 2 3 3 3 1 0 0 1 0 0 1 0 0 1 2 1 1 2 2 3 4 4 5 7 7 7 8 10 12
7 6 6 5 5 4 3 2 2 1 1 1 1 1 1 2 2 2 1 1 1 1 1 1 1 1 1 0 1 2 3 2 1 2 2 2 3 5 5 6 6 7 8
8 7 6 6 5 5 3 3 2 2 1 1 1 1 1 2 2 2 2 1 1 1 1 1 1 1 1 1 2 1 2 3 2 1 1 2 2 2 3 5 6 7 8
8 8 7 5 5 4 4 3 2 2 2 1 1 1 1 1 2 1 1 1 1 2 1 1 1 1 1 1 1 2 2 2 2 2 1 1 2 2 2 4 5 6 8
7 6 5 5 4 4 4 4 4 3 2 2 1 1 1 0 1 1 1 1 1 1 1 1 1 1 2 1 1 1 2 3 2 1 2 2 0 2 3 3 3 4 6
8 6 5 5 4 4 4 4 4 3 2 1 1 0 1 1 0 1 1 1 0 0 0 0 1 1 1 1 0 1 0 0 1 2 1 2 1 1 1 2 2 3 5
6 6 5 5 4 3 4 4 4 4 3 2 1 1 0 1 1 1 0 0 0 1 0 1 1 1 1 1 0 0 1 1 1 2 2 2 1 2 1 0 0 1 3
Wind_Direction
156 157 138 131 126 122 119 119 119 120 120 120 120 119 119 119 120 122 123 124 125 127 128 128 127 124 122 123 126 129 131 131 131 131 132 134 137 137 133 133 130 130 132
156 156 139 134 128 123 122 123 124 125 125 124 124 123 124 124 124 125 126 126 128 130 131 132 130 127 126 127 128 131 135 136 136 136 136 138 144 147 142 140 139 139 139
145 148 142 135 129 126 125 126 127 127 128 127 127 126 126 127 129 131 131 133 134 134 134 135 134 133 135 135 135 134 137 144 145 143 140 139 149 157 155 150 146 144 145
143 143 139 135 131 129 128 127 127 128 128 128 131 132 132 133 134 135 138 140 141 140 140 141 143 144 143 143 144 144 145 152 158 158 150 151 157 163 160 157 153 150 150
136 140 141 137 133 130 129 128 129 129 129 131 133 135 139 141 142 141 142 143 145 148 150 153 155 155 156 154 154 155 158 164 171 174 158 160 162 167 167 162 159 157 156
136 142 144 139 136 134 134 134 134 133 134 136 138 139 143 145 147 149 150 152 154 158 163 166 171 178 179 177 178 179 184 185 182 178 166 165 165 175 172 169 167 164 163
138 143 145 143 142 140 138 138 140 140 140 141 143 146 148 150 150 154 157 160 161 165 172 178 186 192 199 201 204 206 212 221 192 173 175 174 176 180 180 176 173 171 170
139 144 146 148 148 147 145 143 142 143 146 148 151 155 157 158 161 162 165 168 169 172 177 184 194 202 209 213 217 222 223 222 191 173 191 186 184 184 183 182 180 178 177
133 138 141 146 149 153 151 148 148 149 150 154 162 166 169 171 172 177 183 181 181 184 185 193 202 209 214 218 224 225 224 218 200 182 198 194 192 190 187 187 185 183 181
134 135 138 145 150 157 160 157 157 157 159 163 169 171 174 181 185 192 196 195 193 197 202 209 215 220 221 223 226 228 228 219 201 196 203 203 197 193 189 189 190 187 185
141 149 146 145 152 162 167 171 169 166 166 169 169 173 179 190 199 207 211 208 204 207 212 218 222 224 227 229 229 231 232 211 196 206 206 207 202 200 197 194 194 192 192
155 161 157 161 165 165 168 167 171 170 171 171 167 173 176 187 197 203 215 220 216 216 219 225 230 230 232 238 240 238 226 215 205 211 214 212 207 204 202 200 197 197 197
159 159 161 167 167 168 170 157 166 168 169 179 174 178 178 184 197 215 219 228 231 229 228 239 236 232 227 225 226 226 221 214 205 215 221 215 208 204 205 204 202 201 201
149 158 163 164 165 175 162 157 159 153 163 172 182 178 164 161 197 207 205 220 221 225 221 232 226 226 226 224 216 214 214 205 199 205 209 207 207 207 206 206 206 205 205
146 159 162 157 152 154 145 150 139 152 161 170 167 165 161 159 183 180 177 192 197 200 200 207 220 217 219 222 221 206 198 200 196 199 203 206 208 209 207 205 206 205 204
145 152 153 150 147 138 138 139 138 148 155 152 162 168 159 158 150 148 178 185 195 201 208 204 210 208 213 213 213 209 202 201 198 201 206 210 211 210 211 210 207 206 206
148 149 152 144 136 137 131 129 124 142 146 145 150 155 153 155 150 145 165 185 228 224 218 213 224 207 215 206 217 226 217 204 200 202 203 204 207 211 211 209 206 206 209
145 149 154 143 135 135 128 121 116 128 136 144 147 154 147 150 145 130 134 204 241 200 165 180 186 179 231 219 232 248 232 211 211 208 203 205 204 208 214 214 211 210 210
151 151 150 141 142 142 130 117 108 112 116 131 136 134 141 146 137 131 136 212 205 100 102 186 103 162 194 243 259 255 237 225 224 216 204 205 202 203 208 216 214 211 212
150 147 147 144 145 140 124 100 85 86 81 85 103 109 125 136 135 135 131 211 129 106 59 69 86 76 173 240 278 295 276 239 221 214 210 200 193 197 199 205 209 210 209
150 147 150 147 154 144 136 132 122 120 103 71 68 89 130 136 133 130 119 131 133 143 167 125 96 67 337 30 51 348 331 311 238 223 200 183 195 195 192 198 199 200 205
163 163 159 162 168 162 164 162 150 141 143 132 37 45 125 128 142 148 134 157 149 134 103 78 80 90 325 83 128 97 357 350 350 335 195 186 187 174 190 202 200 200 195
167 170 170 172 169 165 152 129 106 78 52 36 16 358 357 137 138 122 109 118 137 153 171 171 130 143 203 306 146 147 157 228 291 325 293 201 182 185 201 198 197 196 191
171 166 162 159 161 162 151 140 145 145 164 205 208 245 315 60 127 150 110 88 110 148 169 210 143 146 157 243 315 247 186 172 169 294 322 320 253 194 211 213 195 180 183
168 160 153 148 154 156 156 156 153 157 186 197 161 101 4 346 3 162 133 65 89 134 134 125 120 121 145 168 239 281 280 98 149 169 257 308 327 278 235 216 182 180 179
160 156 151 145 154 162 158 158 161 168 171 167 169 148 303 296 313 335 40 78 136 150 154 170 151 129 131 143 176 111 157 188 224 178 202 233 259 287 304 33 155 177 183
Height
1517 1517 1517 1518 1518 1518 1518 1519 1519 1520 1521 1523 1524 1526 1527 1528 1530 1531 1532 1533 1534 1535 1536 1536 1537 1538 1539 1539 1540 1541 1541 1542 1543 1544 1544 1545 1546 1547 1547 1547 1548 1548 1549
1517 1517 1518 1518 1519 1519 1520 1520 1521 1522 1523 1524 1525 1527 1528 1529 1530 1531 1532 1533 1534 1535 1536 1537 1538 1538 1539 1540 1541 1541 1542 1543 1543 1544 1545 1545 1546 1547 1547 1548 1548 1548 1549
1517 1517 1519 1519 1520 1520 1521 1521 1522 1523 1524 1525 1526 1527 1528 1530 1530 1532 1533 1534 1535 1536 1536 1537 1538 1539 1539 1540 1541 1542 1542 1543 1544 1544 1545 1545 1546 1547 1547 1548 1548 1549 1549
1518 1519 1519 1520 1521 1521 1522 1522 1523 1524 1524 1526 1527 1528 1529 1530 1531 1532 1533 1534 1535 1536 1536 1537 1538 1539 1540 1540 1541 1542 1542 1543 1544 1544 1545 1545 1546 1547 1547 1548 1548 1548 1549
1519 1520 1521 1521 1522 1522 1522 1523 1524 1524 1525 1526 1527 1528 1529 1530 1531 1532 1533 1534 1535 1536 1536 1537 1538 1539 1539 1540 1541 1542 1542 1543 1543 1544 1545 1545 1546 1546 1547 1547 1548 1548 1549
1520 1521 1522 1522 1523 1523 1523 1524 1524 1525 1525 1526 1527 1528 1529 1530 1531 1531 1532 1533 1534 1535 1536 1536 1537 1538 1539 1540 1540 1541 1542 1542 1543 1543 1544 1545 1545 1546 1547 1547 1548 1548 1549
1520 1521 1522 1523 1523 1524 1524 1524 1525 1525 1526 1526 1527 1528 1529 1529 1530 1531 1531 1532 1533 1534 1535 1535 1536 1537 1538 1539 1540 1540 1541 1542 1542 1543 1544 1544 1545 1546 1546 1547 1548 1548 1549
1521 1522 1523 1523 1524 1524 1525 1525 1525 1525 1526 1526 1527 1527 1528 1529 1529 1530 1530 1531 1532 1533 1534 1534 1535 1536 1537 1538 1539 1540 1540 1541 1541 1542 1543 1544 1545 1545 1546 1546 1547 1548 1549
1522 1522 1523 1524 1524 1525 1525 1525 1525 1526 1526 1526 1526 1527 1527 1528 1529 1529 1529 1530 1531 1532 1533 1533 1534 1535 1535 1537 1538 1538 1539 1540 1540 1541 1542 1543 1544 1545 1545 1546 1547 1548 1548
1523 1523 1524 1524 1524 1524 1525 1525 1526 1526 1526 1525 1526 1526 1527 1527 1528 1528 1528 1529 1530 1531 1531 1532 1532 1533 1534 1535 1536 1537 1538 1538 1539 1540 1541 1542 1543 1544 1545 1545 1546 1547 1547
1524 1524 1524 1524 1525 1525 1525 1525 1526 1526 1525 1525 1525 1526 1526 1527 1527 1527 1527 1528 1529 1529 1530 1530 1531 1531 1532 1533 1534 1535 1536 1537 1538 1539 1540 1541 1542 1542 1544 1545 1545 1546 1547
1524 1524 1525 1525 1525 1525 1525 1525 1526 1525 1525 1525 1525 1526 1526 1526 1526 1526 1526 1527 1527 1528 1528 1529 1530 1530 1531 1532 1532 1533 1534 1535 1537 1538 1539 1540 1541 1541 1542 1543 1544 1545 1545
1524 1525 1525 1525 1525 1525 1525 1525 1526 1525 1525 1525 1525 1526 1526 1526 1526 1525 1525 1525 1526 1527 1527 1528 1528 1529 1530 1530 1531 1532 1533 1534 1535 1536 1537 1538 1539 1540 1541 1542 1543 1543 1544
1524 1525 1525 1525 1525 1525 1525 1525 1525 1525 1525 1525 1525 1525 1525 1525 1525 1525 1524 1525 1525 1525 1526 1527 1527 1528 1528 1529 1530 1530 1531 1532 1533 1535 1536 1537 1538 1539 1539 1540 1541 1542 1543
1525 1525 1525 1525 1525 1525 1525 1525 1525 1525 1525 1525 1525 1525 1525 1524 1524 1524 1524 1524 1525 1525 1525 1526 1526 1526 1527 1528 1528 1529 1529 1530 1532 1533 1534 1535 1536 1537 1538 1538 1539 1540 1541
1525 1525 1525 1525 1525 1525 1525 1525 1525 1525 1525 1525 1524 1524 1524 1524 1524 1524 1524 1524 1524 1524 1524 1525 1525 1525 1526 1526 1527 1527 1528 1529 1530 1531 1532 1533 1534 1535 1536 1537 1537 1538 1539
1525 1525 1525 1525 1525 1525 1525 1525 1525 1525 1525 1524 1524 1523 1523 1523 1523 1523 1523 1523 1523 1523 1523 1524 1524 1524 1524 1525 1525 1526 1526 1527 1528 1529 1530 1531 1532 1533 1533 1534 1535 1536 1537
1525 1525 1525 1525 1526 1525 1525 1525 1525 1525 1525 1524 1523 1522 1522 1522 1521 1522 1522 1522 1522 1522 1522 1522 1522 1522 1522 1523 1523 1524 1525 1525 1526 1527 1528 1529 1529 1530 1531 1532 1533 1534 1534
1524 1525 1525 1525 1525 1525 1526 1526 1525 1525 1524 1524 1523 1522 1521 1521 1520 1521 1521 1521 1521 1521 1520 1520 1520 1520 1521 1521 1522 1522 1523 1524 1524 1525 1526 1526 1527 1528 1529 1530 1530 1531 1532
1524 1524 1525 1525 1525 1525 1525 1525 1525 1525 1524 1524 1523 1522 1521 1520 1520 1520 1520 1520 1520 1520 1520 1520 1519 1519 1520 1520 1520 1521 1521 1522 1523 1523 1524 1524 1525 1526 1526 1527 1528 1529 1530
1524 1524 1524 1525 1525 1525 1525 1525 1525 1524 1524 1524 1523 1522 1521 1520 1520 1520 1519 1519 1519 1519 1519 1519 1519 1519 1519 1519 1519 1519 1520 1520 1521 1521 1522 1522 1523 1524 1524 1525 1526 1527 1528
1522 1523 1524 1524 1524 1524 1525 1525 1525 1525 1524 1524 1523 1522 1522 1521 1520 1520 1519 1519 1519 1518 1518 1518 1518 1518 1518 1518 1518 1518 1518 1520 1519 1520 1520 1521 1521 1522 1522 1523 1524 1524 1525
1521 1522 1523 1523 1523 1524 1524 1525 1525 1524 1524 1523 1523 1522 1522 1521 1521 1520 1519 1519 1518 1518 1517 1517 1517 1517 1517 1517 1517 1518 1518 1517 1518 1519 1519 1519 1519 1520 1520 1521 1522 1522 1523
1521 1521 1522 1523 1523 1523 1524 1524 1523 1523 1523 1523 1522 1522 1522 1521 1520 1520 1519 1519 1518 1517 1517 1517 1516 1516 1516 1516 1516 1516 1517 1517 1517 1517 1517 1517 1518 1518 1518 1519 1520 1521 1521
1519 1520 1521 1521 1522 1522 1523 1523 1523 1523 1523 1523 1522 1522 1521 1521 1520 1520 1519 1518 1517 1517 1516 1516 1516 1516 1515 1515 1515 1515 1515 1515 1515 1515 1515 1516 1516 1516 1517 1517 1518 1518 1519
1518 1519 1520 1520 1521 1522 1522 1522 1522 1522 1522 1522 1521 1521 1521 1520 1520 1519 1519 1518 1517 1516 1516 1515 1515 1515 1515 1514 1514 1514 1514 1514 1513 1513 1513 1513 1514 1515 1515 1515 1515 1515 1516